[[{"header":{"parameterUnit":"m.s-1","parameterCategory":1,"la1":30.2991,"la2":30.254,"lo1":-89.0895,"lo2":-89.0444,"dy":0.0017,"dx":0.0017,"nx":28,"ny":28,"refTime":"2025-04-24T21:00:00:Z","depth":0,"parameterNumber":2,"parameterNumberName":"U-component_of_WINDS"},"data":[0,0,0,0,0,0,0,0,0,0,0,0,0,0,0,0,0,0,0,0,0,0,0,0,0,0,0,0,0,0,0,0,0,0,0,0,0,0,0,0,0,0,0,0,0,0,0,0,0,0,0,0,0,0,0,0,0,0,-1.321,-1.321,0,-1.3147,-1.3147,-1.3146,-1.3087,-1.3087,-1.3086,-1.3085,-1.3019,-1.3018,-1.3017,0,0,0,0,0,0,0,0,0,0,0,0,0,-1.328,-1.3279,-1.321,-1.321,-1.3209,-1.3147,-1.3147,-1.3146,-1.3088,-1.3087,-1.3086,-1.3085,-1.302,-1.3019,-1.3017,0,0,0,0,0,0,0,0,0,0,0,0,0,-1.3237,-1.3279,-1.321,-1.3172,-1.3168,-1.3148,-1.3147,-1.3145,-1.3088,-1.3087,-1.3086,-1.3085,-1.302,-1.3019,-1.3017,-1.3028,0,0,-1.3012,-1.3011,0,0,0,0,0,0,0,0,-1.3239,-1.3234,-1.3179,-1.3175,-1.317,-1.3124,-1.3147,-1.3106,-1.3088,-1.3118,-1.3085,-1.3084,-1.3055,-1.3051,-1.3041,-1.3025,-1.3022,-1.3012,-1.3011,-1.301,-1.301,0,0,0,0,0,0,0,-1.3242,-1.3236,-1.3185,-1.3178,-1.3173,-1.3158,-1.3151,-1.3139,-1.3093,-1.3116,-1.3111,-1.3105,-1.3053,-1.3043,-1.3039,-1.3022,-1.3012,-1.301,-1.3009,-1.3009,-1.3012,-1.3013,0,0,0,0,0,0,-1.3251,-1.3239,-1.3187,-1.3183,-1.3203,-1.3158,-1.315,-1.314,-1.3093,-1.3085,-1.3106,-1.3102,-1.3046,-1.3041,-1.3036,-1.3047,-1.301,-1.3009,-1.3008,-1.3011,-1.3013,-1.3014,0,0,0,0,0,0,-1.3253,-1.3247,-1.319,-1.321,-1.3202,-1.3158,-1.3148,-1.3139,-1.3129,-1.3086,-1.3077,-1.3104,-1.3045,-1.3039,-1.3031,-1.3043,-1.3008,-1.3006,-1.301,-1.3012,-1.3013,-1.3067,0,0,0,0,0,0,-1.3255,-1.3248,-1.3252,-1.3211,-1.3201,-1.3186,-1.3148,-1.3139,-1.3127,-1.3122,-1.3082,-1.3074,-1.3044,-1.3034,-1.3029,-1.3041,-1.3005,-1.3009,-1.3011,-1.3013,-1.3064,-1.307,-1.3076,0,0,0,0,0,-1.3258,-1.3269,-1.3252,-1.3246,-1.3205,-1.3187,-1.3181,-1.3146,-1.3128,-1.3132,-1.3104,-1.3076,-1.3043,-1.3033,-1.3028,-1.3039,-1.3008,-1.301,-1.3013,-1.3061,-1.3069,-1.3076,0,0,0,0,0,0,-1.3312,-1.3263,-1.3244,-1.3242,-1.3219,-1.3177,-1.318,-1.3155,-1.3136,-1.3132,-1.3089,-1.308,-1.3077,-1.3057,-1.3048,-1.3048,-1.3022,-1.3023,-1.3061,-1.3068,-1.3074,-1.3078,-1.3004,0,0,0,0,0,-1.3324,-1.3314,-1.3271,-1.3274,-1.3264,-1.3224,-1.3215,-1.319,-1.3164,-1.3154,-1.3125,-1.3101,-1.3085,-1.3075,-1.3058,-1.3061,-1.3052,-1.3066,-1.3072,-1.3077,-1.3079,-1.3079,-1.3085,-1.3022,-1.3022,-1.3022,0,0,-1.3348,-1.332,-1.3316,-1.3284,-1.3263,-1.3253,-1.3216,-1.3207,-1.3199,-1.3152,-1.3143,-1.3122,-1.3091,-1.3089,-1.3087,-1.3072,-1.3094,-1.308,-1.3085,-1.3083,-1.3082,-1.3088,-1.3093,-1.3023,-1.3023,-1.3023,0,0,-1.3387,-1.3366,-1.3365,-1.3346,-1.3315,-1.3289,-1.3289,-1.325,-1.3234,-1.3225,-1.319,-1.318,-1.3154,-1.3134,-1.312,-1.3153,-1.3127,-1.3149,-1.3179,-1.318,-1.3185,-1.3189,-1.3201,-1.3205,-1.3151,-1.3151,-1.3151,0,-1.3421,-1.3405,-1.3368,-1.3361,-1.3349,-1.3307,-1.3306,-1.3289,-1.3254,-1.3246,-1.3231,-1.3197,-1.3174,-1.3167,-1.3175,-1.3166,-1.3164,-1.3153,-1.3188,-1.3191,-1.3195,-1.3205,-1.321,-1.3154,-1.3154,-1.3153,-1.3153,0,-1.3448,-1.3437,-1.3441,-1.3409,-1.3397,-1.3393,-1.3356,-1.3348,-1.3325,-1.33,-1.3291,-1.3262,-1.3239,-1.3236,-1.3212,-1.3225,-1.3217,-1.3196,-1.3168,-1.3204,-1.3213,-1.3217,-1.3158,-1.3157,-1.3156,-1.3155,0,0,-1.3518,-1.3467,-1.3469,-1.3454,-1.3418,-1.3409,-1.3404,-1.3381,-1.3375,-1.3353,-1.3347,-1.3327,-1.3307,-1.3292,-1.3266,-1.3267,-1.3295,-1.3245,-1.3243,-1.3255,-1.3307,-1.3323,-1.3328,-1.3277,-1.3278,-1.3279,-1.3309,0,-1.3551,-1.3539,-1.3506,-1.3505,-1.3494,-1.3455,-1.3451,-1.3428,-1.3405,-1.3393,-1.3368,-1.3354,-1.3329,-1.3319,-1.3319,-1.3292,-1.3304,-1.3289,-1.3271,-1.3271,-1.3279,-1.3333,-1.3349,-1.338,-1.3312,-1.3313,-1.3313,0,-1.3586,-1.3567,-1.3565,-1.3529,-1.3524,-1.352,-1.3498,-1.3487,-1.346,-1.3444,-1.3428,-1.34,-1.3392,-1.3368,-1.3357,-1.3347,-1.3338,-1.3324,-1.3324,-1.332,-1.3294,-1.333,-1.3388,-1.3393,-1.3319,-1.3318,-1.3318,0,-1.3637,-1.3611,-1.3606,-1.3595,-1.3553,-1.3552,-1.3535,-1.3507,-1.3496,-1.3477,-1.3469,-1.3449,-1.3437,-1.3422,-1.339,-1.3375,-1.3382,-1.3355,-1.3368,-1.3369,-1.337,-1.337,-1.3427,-1.3366,-1.3366,-1.3366,-1.3366,0,-1.3676,-1.3676,-1.3628,-1.3625,-1.3624,-1.3587,-1.3587,-1.3566,-1.3542,-1.3534,-1.3499,-1.3492,-1.345,-1.3439,-1.3413,-1.3408,-1.3403,-1.3389,-1.3382,-1.3392,-1.3393,-1.3384,-1.3381,-1.3367,-1.3367,-1.3366,-1.3366,0,-1.3732,-1.37,-1.3692,-1.3654,-1.3645,-1.3646,-1.3613,-1.3609,-1.3585,-1.3575,-1.3571,-1.3533,-1.3517,-1.3484,-1.3459,-1.3442,-1.3443,-1.3431,-1.3452,-1.3447,-1.3462,-1.346,-1.3514,-1.3519,-1.3456,-1.3456,-1.3457,0,-1.3759,-1.3758,-1.372,-1.3713,-1.3697,-1.3685,-1.3674,-1.3638,-1.3628,-1.3598,-1.3597,-1.3579,-1.3563,-1.354,-1.351,-1.3491,-1.3478,-1.3499,-1.3475,-1.3485,-1.3478,-1.3478,-1.3478,-1.3503,-1.3504,-1.3505,-1.3506,0,-1.3809,-1.3794,-1.3779,-1.3759,-1.3747,-1.373,-1.371,-1.3706,-1.3666,-1.3656,-1.364,-1.3628,-1.3603,-1.3586,-1.3562,-1.3544,-1.3518,-1.3513,-1.3515,-1.3524,-1.3537,-1.353,-1.3465,-1.3512,-1.3511,-1.3511,-1.351,-1.351,-1.3851,-1.3848,-1.3821,-1.3806,-1.3788,-1.3771,-1.3765,-1.3741,-1.3727,-1.3705,-1.3685,-1.3671,-1.3645,-1.3611,-1.3595,-1.3583,-1.357,-1.3573,-1.3574,-1.3575,-1.3579,-1.3539,-1.3579,-1.3579,-1.3579,-1.3579,-1.3578,0,-1.3899,-1.388,-1.3867,-1.3841,-1.383,-1.3807,-1.3785,-1.3776,-1.3765,-1.3743,-1.3728,-1.371,-1.3693,-1.3663,-1.3643,-1.364,-1.3628,-1.3636,-1.3636,-1.3632,-1.3592,-1.3592,-1.3647,-1.3647,-1.3647,-1.3647,-1.3647,-1.3647,-1.3923,-1.3917,-1.3899,-1.3884,-1.3865,-1.3852,-1.3841,-1.3825,-1.3807,-1.3789,-1.3775,-1.3756,-1.373,-1.3709,-1.3693,-1.3684,-1.3678,-1.3691,-1.3678,-1.3641,-1.3635,-1.3628,-1.3628,-1.369,-1.369,-1.3719,-1.3719,-1.3719]},{"header":{"parameterUnit":"m.s-1","parameterCategory":1,"la1":30.2991,"la2":30.254,"lo1":-89.0895,"lo2":-89.0444,"dy":0.0017,"dx":0.0017,"nx":28,"ny":28,"refTime":"2025-04-24T21:00:00:Z","depth":0,"parameterNumber":3,"parameterNumberName":"V-component_of_WINDS"},"data":[0,0,0,0,0,0,0,0,0,0,0,0,0,0,0,0,0,0,0,0,0,0,0,0,0,0,0,0,0,0,0,0,0,0,0,0,0,0,0,0,0,0,0,0,0,0,0,0,0,0,0,0,0,0,0,0,0,0,2.27,2.27,0,2.2705,2.2705,2.2705,2.2727,2.2728,2.2729,2.2729,2.2731,2.273,2.273,0,0,0,0,0,0,0,0,0,0,0,0,0,2.2709,2.2709,2.27,2.27,2.27,2.2705,2.2705,2.2705,2.2727,2.2728,2.2729,2.2729,2.2731,2.273,2.273,0,0,0,0,0,0,0,0,0,0,0,0,0,2.2708,2.2708,2.27,2.2712,2.2713,2.2705,2.2705,2.2705,2.2727,2.2728,2.2729,2.273,2.2731,2.273,2.273,2.2709,0,0,2.2727,2.2727,0,0,0,0,0,0,0,0,2.2708,2.2708,2.271,2.2711,2.2713,2.2716,2.2708,2.2706,2.2727,2.2722,2.2729,2.273,2.2725,2.2725,2.2724,2.2709,2.2709,2.2727,2.2727,2.2727,2.2726,0,0,0,0,0,0,0,2.2708,2.2708,2.2702,2.271,2.2712,2.2717,2.2717,2.2708,2.2719,2.2722,2.2724,2.2724,2.2726,2.2724,2.2724,2.2709,2.2727,2.2727,2.2726,2.2726,2.2678,2.2677,0,0,0,0,0,0,2.2707,2.2708,2.2702,2.2702,2.2713,2.2716,2.2717,2.2714,2.2719,2.272,2.2724,2.2725,2.2725,2.2725,2.2724,2.2701,2.2727,2.2726,2.2726,2.2679,2.2678,2.2677,0,0,0,0,0,0,2.2707,2.2706,2.2702,2.2705,2.2705,2.2715,2.2712,2.2714,2.2713,2.272,2.2722,2.2721,2.2726,2.2725,2.2713,2.2701,2.2726,2.2725,2.268,2.2679,2.2678,2.2654,0,0,0,0,0,0,2.2707,2.2706,2.2699,2.2705,2.2705,2.2691,2.2711,2.2713,2.2712,2.2714,2.2717,2.2719,2.2726,2.2714,2.2712,2.2701,2.2724,2.2681,2.268,2.2678,2.2656,2.2652,2.2649,0,0,0,0,0,2.2708,2.2691,2.2698,2.2697,2.2696,2.269,2.269,2.27,2.2711,2.2703,2.2708,2.2719,2.2703,2.2712,2.2711,2.2699,2.2682,2.268,2.2678,2.2657,2.2653,2.2649,0,0,0,0,0,0,2.2682,2.2692,2.27,2.2685,2.2687,2.2694,2.2685,2.2695,2.2692,2.2694,2.2706,2.2707,2.2693,2.2694,2.2705,2.268,2.2694,2.2692,2.2679,2.2675,2.2671,2.2671,2.2724,0,0,0,0,0,2.2675,2.267,2.2679,2.2665,2.2665,2.2675,2.2672,2.268,2.2682,2.2682,2.2686,2.2686,2.2682,2.2678,2.2674,2.2656,2.2657,2.2647,2.2644,2.2641,2.2639,2.263,2.2626,2.2671,2.2671,2.2671,0,0,2.2659,2.2664,2.266,2.266,2.2662,2.2656,2.2675,2.2668,2.2664,2.2681,2.267,2.2673,2.2674,2.2659,2.2653,2.266,2.2627,2.2638,2.2636,2.2635,2.2628,2.2623,2.262,2.267,2.267,2.267,0,0,2.2628,2.2632,2.2621,2.2623,2.2627,2.2633,2.2631,2.2637,2.264,2.2629,2.2642,2.2637,2.2628,2.2629,2.2628,2.2599,2.2609,2.2597,2.2579,2.257,2.2567,2.2564,2.2554,2.255,2.2595,2.2595,2.2595,0,2.2609,2.2601,2.2614,2.2606,2.2606,2.2623,2.2612,2.2613,2.2614,2.2613,2.2622,2.2612,2.2614,2.26,2.2593,2.2592,2.2589,2.2597,2.2567,2.2564,2.2561,2.2552,2.2548,2.2594,2.2594,2.2594,2.2594,0,2.2577,2.2572,2.2563,2.2565,2.2564,2.2554,2.2565,2.2562,2.257,2.2576,2.2565,2.2568,2.2566,2.2563,2.257,2.255,2.2555,2.2565,2.258,2.2555,2.2546,2.2543,2.2592,2.2592,2.2593,2.2593,0,0,2.253,2.254,2.2537,2.2539,2.2544,2.254,2.2531,2.253,2.2527,2.2528,2.2521,2.2514,2.2524,2.2523,2.2531,2.2523,2.2501,2.2534,2.2534,2.2528,2.2479,2.2472,2.2468,2.2507,2.2507,2.2506,2.2479,0,2.2501,2.2488,2.25,2.2484,2.248,2.2496,2.2489,2.2491,2.2496,2.2493,2.2498,2.2493,2.2507,2.2506,2.25,2.2505,2.2491,2.2507,2.2501,2.25,2.25,2.2463,2.2455,2.243,2.2476,2.2476,2.2475,0,2.2465,2.2466,2.2451,2.2458,2.2457,2.245,2.245,2.2447,2.245,2.2454,2.2454,2.2464,2.2456,2.2471,2.246,2.247,2.2469,2.2471,2.247,2.247,2.2486,2.2462,2.2422,2.2418,2.247,2.247,2.2471,0,2.2433,2.243,2.2421,2.2421,2.243,2.2425,2.2428,2.2432,2.2431,2.2431,2.243,2.2429,2.2428,2.2426,2.2435,2.2445,2.2423,2.2439,2.2427,2.2426,2.2421,2.2421,2.238,2.2419,2.2419,2.242,2.242,0,2.24,2.239,2.2406,2.2401,2.239,2.2403,2.2392,2.2397,2.24,2.2396,2.2409,2.2404,2.2417,2.2413,2.242,2.241,2.2409,2.2412,2.2414,2.2411,2.2411,2.241,2.2413,2.2419,2.2419,2.2419,2.2419,0,2.2362,2.2373,2.2364,2.2373,2.2375,2.2367,2.2374,2.2369,2.2376,2.237,2.2369,2.2379,2.2375,2.2385,2.2382,2.2387,2.2373,2.2377,2.2372,2.2374,2.2361,2.2363,2.2318,2.2313,2.2356,2.2355,2.2355,0,2.234,2.2333,2.2342,2.2341,2.2343,2.234,2.234,2.2352,2.2351,2.2354,2.2349,2.2347,2.2346,2.2339,2.2346,2.2344,2.2349,2.2334,2.2349,2.2346,2.2349,2.235,2.2349,2.233,2.233,2.2329,2.2329,0,2.2301,2.2307,2.2306,2.2307,2.2306,2.2307,2.2309,2.2307,2.232,2.2318,2.2315,2.2314,2.2313,2.231,2.231,2.2313,2.2323,2.2324,2.2322,2.2318,2.2316,2.2318,2.2364,2.2325,2.2326,2.2326,2.2326,2.2326,2.2271,2.2266,2.2272,2.227,2.2273,2.2275,2.2271,2.2278,2.2276,2.2276,2.2284,2.228,2.2283,2.2285,2.2286,2.2283,2.229,2.2286,2.2285,2.2283,2.2282,2.2317,2.2283,2.2283,2.2283,2.2283,2.2283,0,2.2233,2.2237,2.2236,2.2239,2.2238,2.2249,2.2252,2.225,2.2247,2.225,2.2249,2.2246,2.2244,2.2251,2.2251,2.2247,2.2251,2.2246,2.2246,2.2247,2.2275,2.2278,2.2242,2.2242,2.2242,2.2242,2.2242,2.2242,2.2213,2.2205,2.2212,2.2206,2.221,2.2207,2.2208,2.221,2.2213,2.2209,2.2208,2.2213,2.2218,2.2218,2.2217,2.2219,2.2218,2.2211,2.2215,2.2241,2.2245,2.2249,2.2251,2.221,2.221,2.2187,2.2186,2.2186]}]]